When you browse on this site, cookies collect data to enhance your experience and personalize the content and advertising you see.
Visit our Privacy Policy to learn more. By continuing to use the site, you agree to this use of cookies and data.
  • In Lithuania
  • List of Countries
  • For 7 days
  • Water Temperature
  • Weather Map
  • Weather Widgets
  • user-avatar
    Login

    Hourly Weather Suvodskaya

    Today, 18 August, Sunday

    Time Temperature Precipitation Wind Pressure Humidity
    00:00 +27°C° 0.1 mm 6 mps 753 mmHg 44%
    01:00 +27°C° 0 mm 5 mps 753 mmHg 47%
    02:00 +26°C° 0 mm 5 mps 754 mmHg 50%
    03:00 +26°C° 0 mm 5 mps 754 mmHg 53%
    04:00 +25°C° 0 mm 5 mps 754 mmHg 53%
    05:00 +25°C° 0 mm 5 mps 754 mmHg 53%
    06:00 +25°C° 0 mm 5 mps 754 mmHg 54%
    07:00 +26°C° 0 mm 5 mps 754 mmHg 50%
    08:00 +28°C° 0 mm 6 mps 754 mmHg 45%
    09:00 +29°C° 0 mm 6 mps 755 mmHg 41%
    10:00 +30°C° 0 mm 6 mps 755 mmHg 37%
    11:00 +32°C° 0 mm 6 mps 755 mmHg 33%
    12:00 +33°C° 0 mm 6 mps 754 mmHg 29%
    13:00 +34°C° 0 mm 6 mps 754 mmHg 26%
    14:00 +35°C° 0 mm 5 mps 754 mmHg 24%
    15:00 +36°C° 0 mm 5 mps 754 mmHg 21%
    16:00 +35°C° 0 mm 4 mps 754 mmHg 24%
    17:00 +35°C° 0 mm 3 mps 754 mmHg 26%
    18:00 +34°C° 0 mm 2 mps 754 mmHg 29%
    19:00 +31°C° 0 mm 2 mps 755 mmHg 34%
    20:00 +29°C° 0 mm 3 mps 755 mmHg 39%
    21:00 +28°C° 0 mm 3 mps 755 mmHg 43%
    22:00 +28°C° 0 mm 3 mps 756 mmHg 42%
    23:00 +27°C° 0 mm 3 mps 756 mmHg 41%

    Tomorrow, 19 August, Monday

    Time Temperature Precipitation Wind Pressure Humidity
    00:00 +27°C° 0 mm 3 mps 756 mmHg 40%
    01:00 +26°C° 0 mm 3 mps 756 mmHg 40%
    02:00 +26°C° 0 mm 2 mps 756 mmHg 40%
    03:00 +25°C° 0 mm 2 mps 756 mmHg 41%
    04:00 +25°C° 0 mm 2 mps 757 mmHg 41%
    05:00 +25°C° 0 mm 2 mps 757 mmHg 41%
    06:00 +25°C° 0 mm 2 mps 757 mmHg 41%
    07:00 +27°C° 0 mm 2 mps 757 mmHg 36%
    08:00 +29°C° 0 mm 3 mps 758 mmHg 31%
    09:00 +31°C° 0 mm 3 mps 758 mmHg 27%
    10:00 +33°C° 0 mm 3 mps 758 mmHg 24%
    11:00 +35°C° 0 mm 3 mps 758 mmHg 22%
    12:00 +36°C° 0 mm 3 mps 758 mmHg 20%
    13:00 +36°C° 0 mm 3 mps 757 mmHg 19%
    14:00 +37°C° 0 mm 3 mps 757 mmHg 19%
    15:00 +38°C° 0 mm 2 mps 757 mmHg 18%
    16:00 +37°C° 0 mm 2 mps 757 mmHg 20%
    17:00 +37°C° 0 mm 2 mps 757 mmHg 22%
    18:00 +35°C° 0 mm 1 mps 757 mmHg 24%
    19:00 +34°C° 0 mm 2 mps 757 mmHg 24%
    20:00 +33°C° 0 mm 3 mps 757 mmHg 25%
    21:00 +30°C° 0 mm 3 mps 758 mmHg 26%
    22:00 +30°C° 0 mm 3 mps 758 mmHg 27%
    23:00 +29°C° 0 mm 2 mps 758 mmHg 28%

    Day after tomorrow, 20 August, Tuesday

    Time Temperature Precipitation Wind Pressure Humidity
    00:00 +28°C° 0 mm 2 mps 758 mmHg 29%
    01:00 +28°C° 0 mm 2 mps 758 mmHg 29%
    02:00 +27°C° 0 mm 2 mps 758 mmHg 30%
    03:00 +26°C° 0 mm 2 mps 759 mmHg 31%
    04:00 +26°C° 0 mm 2 mps 759 mmHg 33%
    05:00 +26°C° 0 mm 2 mps 759 mmHg 36%
    06:00 +25°C° 0 mm 2 mps 759 mmHg 39%
    07:00 +27°C° 0 mm 2 mps 759 mmHg 35%
    08:00 +29°C° 0 mm 2 mps 759 mmHg 32%
    09:00 +31°C° 0 mm 3 mps 760 mmHg 28%
    10:00 +33°C° 0 mm 3 mps 759 mmHg 26%
    11:00 +35°C° 0 mm 3 mps 759 mmHg 23%
    12:00 +36°C° 0 mm 2 mps 759 mmHg 20%
    13:00 +37°C° 0 mm 2 mps 759 mmHg 20%
    14:00 +37°C° 0 mm 2 mps 759 mmHg 19%
    15:00 +38°C° 0 mm 2 mps 759 mmHg 18%
    16:00 +36°C° 0 mm 1 mps 758 mmHg 19%
    17:00 +36°C° 0 mm 1 mps 758 mmHg 21%
    18:00 +35°C° 0 mm 1 mps 758 mmHg 23%
    19:00 +34°C° 0 mm 1 mps 758 mmHg 24%
    20:00 +32°C° 0 mm 2 mps 758 mmHg 25%
    21:00 +30°C° 0 mm 3 mps 759 mmHg 26%
    22:00 +29°C° 0 mm 4 mps 759 mmHg 35%
    23:00 +28°C° 0 mm 4 mps 759 mmHg 45%

    21 August, Wednesday

    Time Temperature Precipitation Wind Pressure Humidity
    00:00 +27°C° 0 mm 5 mps 759 mmHg 54%
    01:00 +26°C° 0 mm 5 mps 759 mmHg 57%
    02:00 +26°C° 0 mm 5 mps 759 mmHg 60%
    03:00 +25°C° 0 mm 5 mps 759 mmHg 63%
    04:00 +25°C° 0 mm 5 mps 759 mmHg 65%
    05:00 +24°C° 0 mm 6 mps 759 mmHg 66%
    06:00 +23°C° 0 mm 6 mps 759 mmHg 68%
    07:00 +26°C° 0 mm 6 mps 760 mmHg 63%
    08:00 +27°C° 0 mm 6 mps 760 mmHg 59%
    09:00 +29°C° 0 mm 6 mps 760 mmHg 54%
    10:00 +32°C° 0 mm 6 mps 760 mmHg 49%
    11:00 +33°C° 0 mm 6 mps 760 mmHg 44%
    12:00 +35°C° 0 mm 6 mps 760 mmHg 39%
    13:00 +35°C° 0 mm 6 mps 759 mmHg 37%
    14:00 +35°C° 0 mm 6 mps 759 mmHg 35%
    15:00 +36°C° 0 mm 6 mps 759 mmHg 33%
    16:00 +35°C° 0 mm 6 mps 759 mmHg 35%
    17:00 +34°C° 0 mm 6 mps 759 mmHg 37%
    18:00 +33°C° 0 mm 6 mps 759 mmHg 38%
    19:00 +30°C° 0 mm 6 mps 759 mmHg 40%
    20:00 +29°C° 0 mm 6 mps 759 mmHg 42%
    21:00 +28°C° 0 mm 6 mps 759 mmHg 43%
    22:00 +27°C° 0 mm 5 mps 759 mmHg 45%
    23:00 +26°C° 0 mm 5 mps 760 mmHg 47%

    22 August, Thursday

    Time Temperature Precipitation Wind Pressure Humidity
    00:00 +26°C° 0 mm 5 mps 760 mmHg 49%
    01:00 +25°C° 0 mm 5 mps 760 mmHg 53%
    02:00 +23°C° 0 mm 4 mps 760 mmHg 56%
    03:00 +23°C° 0 mm 4 mps 760 mmHg 60%
    04:00 +22°C° 0 mm 4 mps 760 mmHg 62%
    05:00 +22°C° 0 mm 4 mps 760 mmHg 65%
    06:00 +22°C° 0 mm 4 mps 759 mmHg 67%
    07:00 +25°C° 0 mm 4 mps 760 mmHg 62%
    08:00 +27°C° 0 mm 4 mps 760 mmHg 56%
    09:00 +29°C° 0 mm 5 mps 760 mmHg 50%
    10:00 +30°C° 0 mm 4 mps 760 mmHg 46%
    11:00 +32°C° 0 mm 4 mps 759 mmHg 41%
    12:00 +33°C° 0 mm 4 mps 759 mmHg 37%
    13:00 +34°C° 0 mm 4 mps 759 mmHg 35%
    14:00 +34°C° 0 mm 4 mps 758 mmHg 34%
    15:00 +35°C° 0 mm 4 mps 758 mmHg 32%
    16:00 +34°C° 0 mm 4 mps 758 mmHg 33%
    17:00 +34°C° 0 mm 3 mps 758 mmHg 34%
    18:00 +33°C° 0 mm 3 mps 758 mmHg 35%
    19:00 +31°C° 0 mm 3 mps 758 mmHg 38%
    20:00 +29°C° 0 mm 3 mps 758 mmHg 41%
    21:00 +28°C° 0 mm 3 mps 758 mmHg 44%
    22:00 +27°C° 0 mm 3 mps 758 mmHg 46%
    23:00 +27°C° 0 mm 3 mps 758 mmHg 48%

    23 August, Friday

    Time Temperature Precipitation Wind Pressure Humidity
    00:00 +26°C° 0 mm 3 mps 758 mmHg 50%
    01:00 +26°C° 0 mm 3 mps 758 mmHg 51%
    02:00 +25°C° 0 mm 3 mps 758 mmHg 52%
    03:00 +25°C° 0 mm 3 mps 758 mmHg 52%
    04:00 +25°C° 0 mm 3 mps 758 mmHg 52%
    05:00 +25°C° 0 mm 3 mps 758 mmHg 52%
    06:00 +25°C° 0 mm 3 mps 758 mmHg 52%
    07:00 +27°C° 0 mm 3 mps 758 mmHg 47%
    08:00 +29°C° 0 mm 3 mps 758 mmHg 42%
    09:00 +31°C° 0 mm 3 mps 758 mmHg 37%
    10:00 +33°C° 0 mm 3 mps 758 mmHg 35%
    11:00 +33°C° 0 mm 3 mps 758 mmHg 33%
    12:00 +34°C° 0 mm 3 mps 758 mmHg 30%
    13:00 +35°C° 0 mm 2 mps 757 mmHg 29%
    14:00 +35°C° 0 mm 2 mps 757 mmHg 28%
    15:00 +35°C° 0 mm 2 mps 757 mmHg 27%
    16:00 +35°C° 0 mm 2 mps 757 mmHg 29%
    17:00 +34°C° 0 mm 2 mps 757 mmHg 30%
    18:00 +34°C° 0 mm 2 mps 756 mmHg 32%
    19:00 +33°C° 0 mm 3 mps 756 mmHg 35%
    20:00 +30°C° 0 mm 3 mps 756 mmHg 37%
    21:00 +29°C° 0 mm 3 mps 756 mmHg 40%
    22:00 +28°C° 0 mm 3 mps 756 mmHg 41%
    23:00 +28°C° 0 mm 2 mps 756 mmHg 42%
    Show more